Location: Hopville
(44.8032°N, 123.1329°W)
Time: 16:40:09
(UTC+00:00)

Cosmos 44 Rocket - Pass Details

Date: 24 January 2021
Orbit: 637 x 753 km, 65.1° (Epoch: 28 February)

Event Time Altitude Azimuth Distance (km) Brightness Sun altitude
Exits shadow 12:47:11 51° 122° (ESE) 947 4.1 -30.5°
Drops below altitude 10° 12:51:06 10° 139° (SE) 2,263 6.4 -29.8°
Sets 12:53:28 0° 141° (SE) 3,176 7.2 -29.4°
